Location: Saint-Usage
(47.1052°N, 5.2587°E)
Time: 12:42:22
(UTC+01:00)

NOAA 19 - Pass Details

Date: 01 December 2021
Orbit: 841 x 860 km, 99.2° (Epoch: 24 January)

Event Time Altitude Azimuth Distance (km) Brightness Sun altitude
Rises 18:28:29 0° 142° (SE) 3,385 8.1 -15.9°
Reaches altitude 10° 18:30:56 10° 136° (SE) 2,455 7.3 -16.3°
Maximum altitude 18:36:02 43° 66° (ENE) 1,173 5.5 -17.2°
Drops below altitude 10° 18:41:11 10° 357° (N) 2,476 7.5 -18.0°
Sets 18:43:39 0° 351° (N) 3,418 8.3 -18.4°
